Location: Kaltenbach
(49.2000°N, 7.7500°E)
Time: 08:54:13
(UTC+00:00)

Cosmos 1703 - Pass Details

Date: 24 January 2020
Orbit: 523 x 541 km, 82.5° (Epoch: 27 February)

Event Time Altitude Azimuth Distance (km) Brightness Sun altitude
Rises 18:18:49 0° 197° (SSW) 2,687 7.1 -20.5°
Reaches altitude 10° 18:20:59 10° 201° (SSW) 1,802 6.3 -20.9°
Maximum altitude 18:24:54 60° 282° (WNW) 628 3.8 -21.5°
Enters shadow 18:28:17 14° 1° (N) 1,590 5.6 -22.0°
